Hourly Weather Bolshie Prudy

Today, 18 June, Friday

Time Temperature Precipitation Wind Pressure Humidity
00:00 +14°C° 0 mm 3 mps 747 mmHg 88%
01:00 +13°C° 0 mm 3 mps 748 mmHg 86%
02:00 +13°C° 0 mm 4 mps 748 mmHg 83%
03:00 +13°C° 0 mm 4 mps 748 mmHg 83%
04:00 +13°C° 0 mm 4 mps 748 mmHg 83%
05:00 +14°C° 0 mm 4 mps 748 mmHg 83%
06:00 +15°C° 0 mm 4 mps 748 mmHg 79%
07:00 +18°C° 0 mm 4 mps 748 mmHg 76%
08:00 +19°C° 0 mm 5 mps 749 mmHg 73%
09:00 +20°C° 0 mm 5 mps 749 mmHg 69%
10:00 +21°C° 0 mm 5 mps 749 mmHg 66%
11:00 +22°C° 0 mm 5 mps 749 mmHg 62%
12:00 +22°C° 0 mm 5 mps 749 mmHg 62%
13:00 +23°C° 0 mm 5 mps 749 mmHg 61%
14:00 +23°C° 0 mm 5 mps 749 mmHg 60%
15:00 +22°C° 0 mm 5 mps 749 mmHg 64%
16:00 +22°C° 0 mm 4 mps 749 mmHg 68%
17:00 +22°C° 0 mm 4 mps 748 mmHg 72%
18:00 +20°C° 0 mm 4 mps 749 mmHg 76%
19:00 +19°C° 0 mm 3 mps 749 mmHg 81%
20:00 +17°C° 0 mm 3 mps 749 mmHg 86%
21:00 +16°C° 0 mm 3 mps 749 mmHg 88%
22:00 +16°C° 0 mm 3 mps 749 mmHg 89%
23:00 +14°C° 0 mm 3 mps 749 mmHg 90%

Tomorrow, 19 June, Saturday

Time Temperature Precipitation Wind Pressure Humidity
00:00 +14°C° 0 mm 3 mps 749 mmHg 91%
01:00 +13°C° 0 mm 3 mps 749 mmHg 92%
02:00 +13°C° 0 mm 3 mps 749 mmHg 92%
03:00 +13°C° 0 mm 3 mps 749 mmHg 92%
04:00 +14°C° 0 mm 3 mps 749 mmHg 91%
05:00 +14°C° 0 mm 3 mps 749 mmHg 90%
06:00 +17°C° 0 mm 3 mps 749 mmHg 86%
07:00 +18°C° 0 mm 3 mps 749 mmHg 81%
08:00 +20°C° 0 mm 4 mps 749 mmHg 77%
09:00 +21°C° 0 mm 4 mps 749 mmHg 74%
10:00 +22°C° 0 mm 4 mps 749 mmHg 71%
11:00 +23°C° 0 mm 4 mps 749 mmHg 68%
12:00 +23°C° 0 mm 4 mps 749 mmHg 66%
13:00 +25°C° 0 mm 4 mps 748 mmHg 65%
14:00 +25°C° 0 mm 3 mps 748 mmHg 63%
15:00 +25°C° 0 mm 3 mps 748 mmHg 65%
16:00 +25°C° 0 mm 3 mps 748 mmHg 68%
17:00 +24°C° 0 mm 3 mps 748 mmHg 71%
18:00 +21°C° 0 mm 3 mps 748 mmHg 75%
19:00 +20°C° 0 mm 3 mps 748 mmHg 80%
20:00 +18°C° 0 mm 2 mps 748 mmHg 84%
21:00 +17°C° 0 mm 2 mps 748 mmHg 84%
22:00 +17°C° 0 mm 2 mps 748 mmHg 85%
23:00 +16°C° 0 mm 2 mps 748 mmHg 85%

Day after tomorrow, 20 June, Sunday

Time Temperature Precipitation Wind Pressure Humidity
00:00 +15°C° 0 mm 2 mps 748 mmHg 87%
01:00 +15°C° 0 mm 2 mps 748 mmHg 88%
02:00 +15°C° 0 mm 2 mps 747 mmHg 90%
03:00 +15°C° 0 mm 2 mps 747 mmHg 90%
04:00 +16°C° 0 mm 2 mps 747 mmHg 89%
05:00 +16°C° 0 mm 2 mps 747 mmHg 89%
06:00 +18°C° 0 mm 3 mps 747 mmHg 84%
07:00 +19°C° 0 mm 3 mps 747 mmHg 79%
08:00 +21°C° 0 mm 3 mps 747 mmHg 73%
09:00 +22°C° 0 mm 3 mps 747 mmHg 69%
10:00 +23°C° 0 mm 4 mps 747 mmHg 65%
11:00 +25°C° 0 mm 4 mps 747 mmHg 62%
12:00 +25°C° 0 mm 4 mps 747 mmHg 60%
13:00 +26°C° 0 mm 4 mps 747 mmHg 59%
14:00 +26°C° 0 mm 3 mps 746 mmHg 58%
15:00 +26°C° 0 mm 3 mps 746 mmHg 63%
16:00 +25°C° 0 mm 3 mps 746 mmHg 67%
17:00 +25°C° 0 mm 3 mps 746 mmHg 71%
18:00 +24°C° 0 mm 3 mps 746 mmHg 75%
19:00 +21°C° 0 mm 3 mps 746 mmHg 79%
20:00 +20°C° 0 mm 3 mps 745 mmHg 83%
21:00 +19°C° 0 mm 3 mps 745 mmHg 84%
22:00 +19°C° 0 mm 3 mps 745 mmHg 85%
23:00 +18°C° 0 mm 3 mps 745 mmHg 86%

21 June, Monday

Time Temperature Precipitation Wind Pressure Humidity
00:00 +18°C° 0 mm 3 mps 745 mmHg 87%
01:00 +18°C° 0 mm 3 mps 745 mmHg 88%
02:00 +17°C° 0 mm 3 mps 745 mmHg 89%
03:00 +18°C° 0 mm 3 mps 745 mmHg 89%
04:00 +18°C° 0 mm 3 mps 745 mmHg 88%
05:00 +18°C° 0 mm 3 mps 745 mmHg 88%
06:00 +20°C° 0 mm 4 mps 745 mmHg 84%
07:00 +21°C° 0 mm 4 mps 745 mmHg 81%
08:00 +22°C° 0 mm 5 mps 745 mmHg 77%
09:00 +25°C° 0 mm 5 mps 745 mmHg 73%
10:00 +26°C° 0 mm 5 mps 745 mmHg 69%
11:00 +27°C° 0 mm 5 mps 745 mmHg 65%
12:00 +28°C° 0 mm 5 mps 744 mmHg 64%
13:00 +28°C° 0 mm 5 mps 744 mmHg 64%
14:00 +29°C° 0 mm 5 mps 744 mmHg 63%
15:00 +28°C° 0 mm 4 mps 744 mmHg 66%
16:00 +28°C° 0 mm 4 mps 744 mmHg 69%
17:00 +28°C° 0 mm 4 mps 744 mmHg 72%
18:00 +26°C° 0 mm 4 mps 744 mmHg 77%
19:00 +25°C° 0 mm 4 mps 744 mmHg 83%
20:00 +22°C° 0 mm 3 mps 744 mmHg 88%
21:00 +21°C° 0 mm 3 mps 744 mmHg 88%
22:00 +21°C° 0 mm 3 mps 744 mmHg 89%
23:00 +20°C° 0 mm 3 mps 744 mmHg 89%

22 June, Tuesday

Time Temperature Precipitation Wind Pressure Humidity
00:00 +20°C° 0 mm 3 mps 744 mmHg 90%
01:00 +19°C° 0 mm 3 mps 744 mmHg 90%
02:00 +19°C° 0 mm 3 mps 744 mmHg 91%
03:00 +19°C° 0 mm 3 mps 744 mmHg 90%
04:00 +20°C° 0 mm 3 mps 744 mmHg 89%
05:00 +20°C° 0 mm 3 mps 744 mmHg 88%
06:00 +21°C° 0 mm 4 mps 744 mmHg 83%
07:00 +23°C° 0 mm 4 mps 744 mmHg 78%
08:00 +26°C° 0 mm 5 mps 744 mmHg 73%
09:00 +27°C° 0 mm 5 mps 745 mmHg 69%
10:00 +28°C° 0 mm 5 mps 745 mmHg 65%
11:00 +29°C° 0 mm 5 mps 745 mmHg 61%
12:00 +29°C° 0 mm 4 mps 745 mmHg 60%
13:00 +30°C° 0 mm 4 mps 745 mmHg 60%
14:00 +30°C° 0 mm 4 mps 745 mmHg 59%
15:00 +29°C° 0 mm 4 mps 744 mmHg 64%
16:00 +29°C° 0 mm 4 mps 744 mmHg 68%
17:00 +28°C° 0 mm 3 mps 744 mmHg 72%
18:00 +27°C° 0 mm 3 mps 744 mmHg 76%
19:00 +25°C° 0 mm 3 mps 744 mmHg 79%
20:00 +24°C° 0 mm 3 mps 744 mmHg 83%
21:00 +22°C° 0 mm 3 mps 744 mmHg 84%
22:00 +22°C° 0 mm 3 mps 744 mmHg 85%
23:00 +21°C° 0 mm 3 mps 744 mmHg 87%

23 June, Wednesday

Time Temperature Precipitation Wind Pressure Humidity
00:00 +21°C° 0 mm 3 mps 744 mmHg 87%
01:00 +20°C° 0 mm 3 mps 744 mmHg 88%
02:00 +20°C° 0 mm 3 mps 744 mmHg 89%
03:00 +20°C° 0 mm 3 mps 744 mmHg 88%
04:00 +21°C° 0 mm 3 mps 745 mmHg 88%
05:00 +21°C° 0 mm 3 mps 745 mmHg 88%
06:00 +24°C° 0 mm 3 mps 745 mmHg 83%
07:00 +25°C° 0 mm 3 mps 745 mmHg 78%
08:00 +27°C° 0 mm 4 mps 745 mmHg 73%
09:00 +28°C° 0 mm 4 mps 745 mmHg 69%
10:00 +29°C° 0 mm 4 mps 745 mmHg 65%
11:00 +30°C° 0 mm 4 mps 745 mmHg 60%
12:00 +30°C° 0 mm 4 mps 745 mmHg 60%
13:00 +30°C° 0 mm 4 mps 745 mmHg 59%
14:00 +32°C° 0 mm 4 mps 745 mmHg 58%
15:00 +30°C° 0 mm 4 mps 744 mmHg 62%
16:00 +30°C° 0 mm 4 mps 744 mmHg 66%
17:00 +29°C° 0 mm 3 mps 744 mmHg 69%
18:00 +28°C° 0 mm 3 mps 744 mmHg 73%
19:00 +26°C° 0 mm 3 mps 744 mmHg 77%
20:00 +25°C° 0 mm 2 mps 744 mmHg 81%
21:00 +24°C° 0 mm 3 mps 744 mmHg 81%
22:00 +22°C° 0 mm 3 mps 744 mmHg 82%
23:00 +22°C° 0 mm 3 mps 744 mmHg 82%
Show more